RH
92 89 90 89 83 96 96 96 83 81 69 60 70 76 63 64 63 68 94 91 87 86 76 72 71 72 72 72 73 73 74 74 74 76 79 82 82 80 79 78 76 75 75
97 94 92 84 80 76 94 94 93 85 80 76 67 62 58 57 60 65 77 90 85 80 81 77 77 78 79 72 74 74 74 73 74 75 75 76 78 81 81 80 79 79 79
98 98 97 96 86 72 72 90 93 95 91 78 76 72 66 54 48 56 63 66 77 87 86 79 76 75 74 76 78 75 75 75 75 75 76 77 77 76 77 81 82 80 78
97 98 98 98 96 82 73 75 76 94 96 96 87 83 70 64 51 46 52 60 69 68 82 93 92 82 79 75 72 75 76 76 77 77 76 76 76 75 74 74 75 78 80
95 96 98 98 97 97 92 79 80 78 90 96 90 90 77 73 66 52 51 62 62 62 74 93 93 93 91 84 80 79 76 78 78 79 79 80 80 78 77 77 77 75 74
93 94 96 96 95 97 98 96 90 85 88 88 70 76 89 90 80 66 57 50 53 67 77 84 86 86 88 87 85 78 72 75 81 82 85 85 85 84 85 83 83 82 80
90 93 96 94 95 95 95 94 96 96 97 97 74 74 74 61 70 80 71 60 61 63 69 76 75 79 82 84 86 86 82 82 81 85 84 82 81 80 80 81 83 83 82
89 88 92 93 92 94 93 94 95 96 96 97 96 92 92 87 75 57 58 56 70 72 65 66 71 72 74 78 82 84 84 82 83 84 81 80 78 77 77 75 76 76 76
84 86 88 91 94 93 96 96 97 94 97 94 96 96 98 96 95 90 72 66 60 69 81 77 66 70 71 74 78 78 81 81 77 78 79 77 74 73 72 72 72 72 72
75 80 84 87 93 94 96 95 92 96 95 97 95 91 94 94 96 97 92 93 74 68 71 68 74 60 57 65 79 79 77 76 75 74 74 73 71 70 68 67 67 68 68
70 72 74 80 87 91 92 92 93 93 94 96 96 96 94 96 93 97 98 97 93 92 87 81 76 77 61 62 59 71 68 67 69 71 72 70 69 68 67 66 66 66 67
73 69 64 70 73 78 86 91 91 91 92 93 94 94 96 97 97 97 97 97 97 96 94 94 92 92 92 85 78 76 64 62 63 63 64 65 65 65 65 63 63 64 63
71 66 63 68 71 73 73 78 85 88 91 93 93 94 93 93 92 93 95 97 97 95 93 93 92 92 83 89 84 75 64 64 59 60 61 62 63 63 64 64 64 64 64
65 57 57 60 62 66 68 73 78 82 85 90 84 82 86 88 89 90 91 94 95 96 96 94 93 90 84 76 78 69 51 61 56 58 58 60 61 62 62 63 63 64 65
49 53 54 56 58 63 65 70 70 70 69 72 77 78 78 77 78 81 84 87 89 86 86 96 95 89 87 77 74 64 53 61 52 49 52 56 58 61 62 63 65 66 67
50 53 52 52 53 56 59 62 68 65 65 68 68 65 68 67 68 70 73 69 68 72 71 64 79 83 76 63 68 66 55 55 50 49 49 52 59 62 63 65 67 66 65
54 52 51 52 52 53 54 56 56 56 61 62 62 65 65 60 65 63 69 65 67 69 73 68 63 58 54 52 48 50 51 44 41 44 47 55 59 64 65 63 62 64 64
60 52 48 51 51 52 53 54 53 49 52 54 55 59 57 46 62 64 63 60 59 59 67 65 59 58 54 52 55 55 43 35 43 42 48 50 56 58 60 56 57 61 63
78 56 53 51 54 55 53 51 50 51 52 55 56 58 57 56 59 64 57 62 65 51 63 64 64 62 62 62 63 58 50 55 43 52 46 51 54 52 52 52 54 55 57
94 89 73 60 57 52 52 50 51 55 56 57 62 60 60 60 61 62 58 64 60 69 67 72 70 69 66 63 64 66 67 64 63 48 52 52 52 50 50 51 50 51 56
97 96 88 85 74 55 40 60 57 56 59 56 59 53 60 66 58 64 64 73 69 75 76 77 74 70 69 70 70 71 72 71 66 68 64 60 53 57 58 53 49 50 52
97 96 95 96 88 62 57 52 54 70 61 57 63 57 56 56 55 52 56 59 66 77 79 80 79 76 68 67 70 76 79 80 81 72 66 63 59 64 58 48 47 49 54
97 97 97 96 95 91 69 70 68 73 72 72 68 65 56 37 58 64 60 58 60 59 61 73 78 72 70 69 71 78 79 80 80 69 70 69 62 60 56 33 44 46 53
97 97 97 97 96 92 75 76 74 85 84 80 72 70 69 66 64 64 65 67 67 65 65 59 72 72 70 75 77 75 80 77 72 66 69 67 63 54 42 44 44 42 44
96 96 96 96 96 95 74 74 75 83 85 84 79 72 71 72 60 49 68 76 76 74 53 60 61 61 61 62 67 76 78 71 69 58 64 55 57 45 49 49 46 44 44
96 97 96 96 88 94 79 70 76 96 94 79 75 80 71 67 61 59 73 88 92 80 72 65 75 69 69 70 50 68 74 73 66 59 57 51 51 48 51 49 49 54 50
Wind_Speed
4 4 5 4 4 4 4 4 5 6 8 9 7 9 9 9 9 5 3 9 9 9 8 5 4 5 5 7 9 10 10 11 12 13 13 13 14 15 15 16 15 17 17
5 3 5 3 5 4 3 3 3 4 5 5 8 9 9 9 8 7 4 4 7 8 8 11 8 11 10 5 6 8 9 9 10 11 12 12 12 13 14 14 14 15 15
5 5 4 3 4 3 4 4 3 4 4 5 7 6 7 8 8 8 6 5 4 8 10 10 10 11 11 10 4 6 6 7 8 9 10 10 11 11 12 12 12 13 14
5 4 4 3 3 3 2 3 4 3 3 4 3 5 5 6 8 7 6 5 4 5 7 12 13 8 9 9 9 6 4 4 5 7 8 9 9 9 10 10 11 11 11
6 7 4 1 3 5 4 3 3 2 2 4 4 3 3 4 6 6 7 6 6 5 3 10 16 17 16 14 11 9 4 2 3 4 6 7 7 7 7 8 9 10 10
8 6 5 5 3 5 5 3 4 3 2 3 3 5 3 4 5 5 6 7 7 7 7 7 4 8 17 17 15 13 10 2 2 3 7 13 15 15 14 8 9 11 14
7 6 3 4 3 4 5 4 1 5 3 3 4 2 3 4 6 3 4 5 8 8 8 7 5 4 5 16 20 18 14 12 9 14 15 15 15 17 17 17 17 17 16
7 5 4 4 5 3 6 5 4 2 1 6 0 3 2 1 3 4 5 5 6 6 7 8 7 8 6 6 11 20 16 19 18 17 16 14 16 15 14 13 13 13 13
6 6 6 5 4 3 4 5 4 3 2 1 7 1 2 2 1 3 4 6 7 5 5 6 7 7 8 7 9 12 17 14 15 14 16 15 13 12 11 11 11 11 11
6 5 5 5 4 3 5 4 4 3 2 2 1 5 4 2 3 1 2 3 5 6 7 6 6 6 7 6 11 16 16 15 15 14 13 13 11 11 10 10 10 11 11
5 4 4 4 4 3 4 4 3 4 3 2 2 0 2 1 3 3 0 1 0 5 4 5 5 5 8 7 6 11 15 15 15 14 13 12 13 12 12 11 11 10 11
3 3 4 4 4 4 5 4 4 5 4 4 3 3 2 2 2 2 1 1 3 3 4 4 3 4 4 4 9 10 13 14 13 13 13 13 13 13 13 12 11 11 11
3 2 3 4 4 4 4 4 4 4 4 3 4 3 3 3 1 1 2 2 2 2 1 3 2 1 3 2 4 8 6 11 13 12 12 12 13 12 12 13 13 12 13
4 3 4 5 4 4 4 4 3 3 4 3 4 3 3 2 2 2 2 1 2 1 1 1 1 2 2 2 5 10 5 11 12 11 11 12 12 13 12 13 13 13 11
2 4 4 5 5 4 5 4 3 4 4 3 3 4 3 2 2 2 1 1 1 2 2 2 2 1 1 1 3 3 5 9 8 6 8 9 10 12 13 12 12 12 11
4 4 4 5 5 4 4 4 3 3 4 2 3 4 3 2 2 2 2 0 1 1 2 2 0 2 3 2 2 2 3 6 9 9 9 9 10 10 10 10 11 11 12
5 4 4 5 4 4 4 4 4 4 5 4 4 4 4 3 2 2 2 1 1 1 1 1 1 1 2 0 3 3 3 3 3 8 10 14 14 12 10 11 12 14 14
4 4 5 4 4 4 5 5 5 4 4 5 4 4 4 2 3 3 2 2 2 2 0 1 1 2 2 2 2 3 4 4 3 8 10 10 9 11 13 13 13 12 12
6 4 4 4 4 3 4 4 5 4 4 5 4 4 3 2 2 1 2 2 2 2 2 1 1 0 1 2 2 2 4 4 5 9 9 7 10 13 14 13 10 10 10
5 6 5 4 4 4 4 3 3 3 3 4 3 3 3 3 3 2 1 1 2 1 1 0 1 1 0 2 2 3 4 3 6 6 6 8 12 13 12 11 10 8 11
4 4 5 5 5 2 1 4 4 3 2 2 1 1 2 3 2 1 1 2 1 0 0 1 1 1 1 2 2 3 2 4 5 3 3 4 6 5 4 6 6 10 15
4 4 4 3 4 3 6 4 3 3 1 0 1 2 3 3 3 3 2 0 2 2 0 1 1 2 2 2 2 3 3 4 4 2 7 6 4 3 4 5 14 18 16
3 3 3 4 4 4 5 4 4 3 4 3 2 2 2 1 3 2 3 4 3 3 2 1 1 1 1 1 1 2 2 1 3 5 3 4 3 4 4 7 15 12 10
3 2 2 3 4 4 5 6 5 3 4 5 4 3 3 3 4 3 2 2 3 3 4 3 2 1 1 2 2 3 3 4 4 4 1 3 2 5 6 6 10 6 11
3 3 2 2 2 3 7 6 5 3 4 4 4 4 4 4 6 7 3 4 4 4 3 4 4 4 5 5 3 2 2 3 2 1 4 2 3 6 3 3 3 13 15
3 3 3 3 7 4 9 10 6 1 3 4 5 5 9 7 9 10 5 3 3 4 3 2 2 4 4 3 4 1 2 2 2 3 2 3 3 4 5 3 4 4 6
Wind_Direction
54 89 79 70 55 26 21 27 10 8 24 15 28 28 20 34 84 107 97 95 72 51 39 28 37 41 56 65 66 63 61 64 63 63 59 57 58 61 60 59 56 61 57
102 82 76 55 63 39 12 27 46 28 31 19 34 20 20 16 45 68 98 74 83 66 42 41 49 49 40 93 74 67 61 61 65 64 62 60 58 59 62 59 59 59 59
58 75 88 60 77 42 11 1 49 52 58 33 37 39 21 12 26 31 49 40 30 58 44 39 47 41 33 47 75 78 63 58 60 67 66 61 59 59 64 62 58 60 61
90 65 56 49 56 77 10 46 5 62 78 79 69 34 27 25 20 26 32 44 25 35 53 58 41 36 47 36 35 50 60 60 54 57 62 63 58 55 58 62 63 59 58
69 83 66 38 61 65 46 17 30 327 51 64 85 82 54 40 24 20 18 33 35 24 24 78 69 45 46 46 36 13 359 160 91 67 56 51 50 49 55 62 61 62 61
77 70 77 54 341 91 84 39 40 1 54 55 40 88 82 71 41 37 12 15 23 25 25 27 73 66 57 45 30 11 26 58 126 91 62 65 62 59 53 71 55 60 59
53 69 70 85 13 64 87 80 10 43 337 352 123 79 51 97 98 93 42 38 14 23 32 22 26 52 61 54 37 25 55 54 66 98 81 69 62 55 54 53 51 47 48
36 67 72 64 61 70 76 62 68 103 13 334 111 119 149 157 83 59 73 67 42 22 22 38 22 45 47 45 38 32 30 75 59 62 68 63 60 51 43 43 46 47 41
50 51 56 60 51 62 76 75 62 70 125 20 354 3 129 183 128 48 42 64 58 48 34 29 14 39 53 51 40 30 28 44 73 65 56 51 53 54 47 37 29 31 29
44 53 65 64 56 54 68 66 68 67 3 114 78 8 23 17 128 112 20 31 92 64 38 36 30 27 42 49 46 36 34 45 49 50 50 42 31 32 30 25 21 8 9
47 35 65 81 72 67 76 75 78 83 74 80 53 66 7 97 101 63 226 209 208 93 67 48 26 37 33 32 38 37 38 39 43 40 31 25 21 17 14 9 7 4 354
63 33 57 55 57 57 59 60 52 63 94 94 97 65 66 16 32 120 117 20 330 60 75 80 33 26 37 33 42 20 31 31 31 34 21 15 10 7 1 354 356 350 347
92 41 67 68 61 65 68 64 59 62 51 68 58 76 65 75 343 64 98 82 359 2 47 81 99 79 61 55 31 356 24 29 16 17 18 9 2 356 355 347 346 344 343
67 36 64 74 74 81 80 80 81 95 90 80 90 90 91 72 60 43 60 111 105 2 311 103 128 95 57 78 31 355 353 16 6 5 6 13 352 343 345 341 340 336 343
137 56 50 71 61 62 83 87 82 81 74 90 91 99 94 85 81 81 77 339 20 157 235 166 164 176 347 61 70 345 353 354 328 343 351 6 344 336 337 340 338 334 341
88 89 58 65 57 53 65 83 87 77 85 65 74 90 82 69 94 107 110 71 323 356 321 7 232 142 193 283 239 277 296 320 331 333 339 333 334 333 344 343 333 333 336
42 65 90 73 66 61 49 83 86 80 90 75 71 73 73 51 62 64 66 57 107 91 249 281 349 131 167 102 27 333 302 278 291 327 339 338 341 347 349 336 330 333 332
42 43 43 82 81 68 55 56 59 57 85 87 81 102 82 80 63 38 41 59 60 57 246 6 121 335 104 86 7 327 346 351 339 334 332 335 336 335 331 331 328 336 336
23 19 48 50 70 60 86 65 69 63 65 77 70 72 66 71 100 58 54 66 48 45 40 23 356 252 302 49 342 356 359 348 344 336 332 355 338 332 330 324 337 336 341
38 20 23 34 28 40 51 48 83 80 89 87 68 72 74 57 75 55 91 76 82 47 23 39 322 326 14 334 17 1 354 346 324 333 16 350 333 330 331 334 345 345 341
32 13 26 16 17 354 54 52 25 48 60 100 136 138 119 74 21 352 18 12 74 61 5 28 322 24 12 25 20 343 326 331 330 44 351 324 325 313 307 332 326 339 337
24 30 29 19 6 344 49 23 7 353 336 48 286 185 158 198 242 251 253 77 62 66 8 121 352 7 354 25 14 344 343 5 343 5 347 323 308 343 346 330 332 330 331
26 5 32 27 11 358 9 355 332 336 332 294 248 258 253 256 168 219 225 244 269 257 240 182 235 290 3 2 345 323 330 324 276 299 305 289 333 329 309 317 320 333 344
352 6 24 19 2 335 351 348 336 349 313 300 287 246 225 245 215 218 258 264 246 256 223 226 210 326 76 15 6 330 322 283 270 285 67 280 348 310 317 305 318 4 345
337 333 329 335 332 308 318 317 331 324 315 312 314 298 238 240 254 257 234 276 279 279 232 226 254 281 296 308 305 2 324 341 294 342 33 342 335 318 303 300 19 352 347
278 293 309 326 299 297 301 292 287 251 287 293 311 314 305 255 244 256 203 216 271 251 281 281 249 262 250 248 285 204 291 342 330 311 22 347 348 2 314 292 347 346 329